�������l�o���
Date,Time,MP-1(��Sv/h),MP-2(��Sv/h),MP-3(��Sv/h),MP-4(��Sv/h),MP-5(��Sv/h),MP-6(��Sv/h),MP-7(��Sv/h),����,����(m/s),���J
2020/12/20,00:00,0.178,0.161,0.260,0.246,0.241,0.142,0.086,�k�k��,1.0,��
2020/12/20,00:10,0.179,0.161,0.259,0.246,0.240,0.141,0.086,�k,1.9,��
2020/12/20,00:20,0.179,0.160,0.260,0.247,0.240,0.142,0.086,�k,2.2,��
2020/12/20,00:30,0.179,0.160,0.260,0.247,0.240,0.141,0.085,�k��,2.2,��
2020/12/20,00:40,0.179,0.160,0.262,0.247,0.241,0.141,0.086,�k��,2.9,��
2020/12/20,00:50,0.177,0.159,0.261,0.247,0.240,0.142,0.085,�k��,1.8,��
2020/12/20,01:00,0.178,0.159,0.261,0.247,0.240,0.142,0.086,�k��,0.8,��
2020/12/20,01:10,0.180,0.160,0.260,0.247,0.240,0.143,0.086,�k�k��,1.1,��
2020/12/20,01:20,0.178,0.160,0.260,0.247,0.240,0.142,0.086,�k�k��,1.3,��
2020/12/20,01:30,0.179,0.160,0.261,0.247,0.239,0.141,0.086,�k��,0.9,��
2020/12/20,01:40,0.179,0.159,0.260,0.247,0.240,0.141,0.087,�k,0.6,��
2020/12/20,01:50,0.179,0.159,0.260,0.246,0.240,0.141,0.085,�k��,0.7,��
2020/12/20,02:00,0.178,0.161,0.262,0.247,0.240,0.142,0.086,���쓌,0.9,��
2020/12/20,02:10,0.179,0.160,0.261,0.246,0.239,0.142,0.087,���쓌,1.3,��
2020/12/20,02:20,0.179,0.160,0.260,0.246,0.239,0.142,0.086,-,CALM,��
2020/12/20,02:30,0.179,0.160,0.260,0.247,0.239,0.143,0.086,��,0.7,��
2020/12/20,02:40,0.179,0.160,0.261,0.246,0.240,0.141,0.085,���k��,1.0,��
2020/12/20,02:50,0.178,0.160,0.260,0.246,0.240,0.142,0.087,���k��,1.3,��
2020/12/20,03:00,0.178,0.160,0.261,0.246,0.239,0.141,0.086,�k��,0.8,��
2020/12/20,03:10,0.178,0.160,0.261,0.246,0.240,0.142,0.085,��,0.7,��
2020/12/20,03:20,0.178,0.160,0.261,0.247,0.240,0.142,0.085,�쓌,0.9,��
2020/12/20,03:30,0.177,0.161,0.261,0.246,0.239,0.140,0.086,��쓌,1.3,��
2020/12/20,03:40,0.179,0.160,0.259,0.246,0.240,0.141,0.086,���k��,0.6,��
2020/12/20,03:50,0.179,0.160,0.260,0.246,0.240,0.142,0.086,-,CALM,��
2020/12/20,04:00,0.180,0.159,0.261,0.246,0.240,0.141,0.085,��,2.1,��
2020/12/20,04:10,0.179,0.161,0.261,0.245,0.239,0.142,0.086,��,4.9,��
2020/12/20,04:20,0.179,0.160,0.260,0.246,0.239,0.142,0.086,��,3.3,��
2020/12/20,04:30,0.179,0.160,0.260,0.246,0.241,0.141,0.085,��,2.6,��
2020/12/20,04:40,0.178,0.160,0.261,0.247,0.241,0.142,0.086,���k��,1.9,��
2020/12/20,04:50,0.178,0.160,0.260,0.246,0.241,0.142,0.087,���k��,1.6,��
2020/12/20,05:00,0.178,0.159,0.261,0.246,0.240,0.141,0.086,���k��,2.0,��
2020/12/20,05:10,0.178,0.161,0.260,0.246,0.240,0.142,0.085,���k��,4.0,��
2020/12/20,05:20,0.180,0.159,0.261,0.246,0.239,0.141,0.086,���k��,5.4,��
2020/12/20,05:30,0.180,0.160,0.262,0.246,0.239,0.141,0.086,���k��,7.3,��
2020/12/20,05:40,0.179,0.160,0.260,0.246,0.240,0.141,0.086,���k��,8.1,��
2020/12/20,05:50,0.180,0.160,0.261,0.247,0.241,0.140,0.085,���k��,6.6,��
2020/12/20,06:00,0.178,0.160,0.260,0.245,0.239,0.141,0.085,�k�k��,5.4,��
2020/12/20,06:10,0.179,0.161,0.261,0.246,0.239,0.141,0.086,�k,4.1,��
2020/12/20,06:20,0.179,0.161,0.260,0.246,0.239,0.142,0.086,�k,4.4,��
2020/12/20,06:30,0.178,0.160,0.261,0.246,0.240,0.142,0.085,�k,2.1,��
2020/12/20,06:40,0.177,0.160,0.261,0.245,0.239,0.141,0.086,�k�k��,2.4,��
2020/12/20,06:50,0.179,0.160,0.261,0.246,0.240,0.142,0.086,�k�k��,2.2,��
2020/12/20,07:00,0.178,0.159,0.260,0.245,0.239,0.141,0.086,�k�k��,2.4,��
2020/12/20,07:10,0.179,0.160,0.261,0.244,0.240,0.141,0.086,�k��,1.3,��
2020/12/20,07:20,0.179,0.160,0.260,0.246,0.239,0.141,0.086,�k�k��,1.8,��
2020/12/20,07:30,0.178,0.159,0.260,0.246,0.239,0.141,0.085,�k��,2.7,��
2020/12/20,07:40,0.178,0.159,0.261,0.246,0.240,0.141,0.086,�k��,2.2,��
2020/12/20,07:50,0.178,0.160,0.260,0.246,0.241,0.140,0.086,�k��,1.6,��
2020/12/20,08:00,0.178,0.159,0.260,0.246,0.239,0.140,0.086,�k,2.8,��
2020/12/20,08:10,0.177,0.160,0.260,0.245,0.240,0.142,0.086,�k�k��,2.9,��
2020/12/20,08:20,0.179,0.160,0.259,0.245,0.241,0.141,0.085,�k,2.1,��
2020/12/20,08:30,0.178,0.159,0.259,0.245,0.240,0.141,0.086,�k�k��,2.6,��
2020/12/20,08:40,0.177,0.160,0.260,0.245,0.240,0.142,0.085,�k�k��,1.2,��
2020/12/20,08:50,0.178,0.159,0.259,0.246,0.240,0.141,0.086,�k,2.1,��
2020/12/20,09:00,0.179,0.159,0.260,0.244,0.240,0.141,0.087,�k�k��,2.0,��
2020/12/20,09:10,0.178,0.158,0.260,0.244,0.238,0.139,0.085,�k,2.6,��
2020/12/20,09:20,0.177,0.159,0.261,0.246,0.239,0.141,0.085,�k,2.2,��
2020/12/20,09:30,0.178,0.159,0.259,0.246,0.239,0.141,0.085,�k,2.1,��
2020/12/20,09:40,0.178,0.159,0.260,0.245,0.240,0.142,0.085,�k�k��,2.8,��
2020/12/20,09:50,0.178,0.159,0.260,0.245,0.240,0.141,0.085,�k��,1.8,��
2020/12/20,10:00,0.178,0.159,0.259,0.245,0.238,0.140,0.085,�k��,3.0,��
2020/12/20,10:10,0.178,0.160,0.260,0.246,0.240,0.141,0.086,�k��,1.9,��
2020/12/20,10:20,0.177,0.159,0.259,0.245,0.240,0.141,0.085,�k�k��,1.2,��
2020/12/20,10:30,0.178,0.159,0.258,0.245,0.239,0.142,0.086,�k��,4.8,��
2020/12/20,10:40,0.177,0.160,0.259,0.247,0.240,0.141,0.085,���k��,10.9,��
2020/12/20,10:50,0.178,0.159,0.259,0.246,0.239,0.141,0.085,���k��,9.8,��
2020/12/20,11:00,0.179,0.159,0.258,0.246,0.238,0.141,0.085,���k��,8.5,��
2020/12/20,11:10,0.178,0.160,0.261,0.246,0.239,0.141,0.085,���k��,8.5,��
2020/12/20,11:20,0.177,0.160,0.260,0.246,0.240,0.140,0.086,���k��,7.9,��
2020/12/20,11:30,0.177,0.158,0.259,0.246,0.239,0.141,0.086,�k��,7.3,��
2020/12/20,11:40,0.176,0.159,0.259,0.245,0.241,0.141,0.086,��,5.8,��
2020/12/20,11:50,0.178,0.160,0.259,0.245,0.239,0.141,0.085,�k��,7.0,��
2020/12/20,12:00,0.177,0.159,0.260,0.245,0.239,0.142,0.085,�k��,9.0,��
2020/12/20,12:10,0.177,0.159,0.261,0.245,0.240,0.141,0.085,�k��,7.0,��
2020/12/20,12:20,0.178,0.160,0.260,0.246,0.239,0.142,0.085,���k��,8.8,��
2020/12/20,12:30,0.178,0.160,0.261,0.246,0.242,0.142,0.085,�k��,8.7,��
2020/12/20,12:40,0.179,0.158,0.260,0.246,0.241,0.141,0.086,���k��,9.8,��
2020/12/20,12:50,0.179,0.159,0.259,0.245,0.241,0.142,0.085,�k��,12.8,��
2020/12/20,13:00,0.178,0.159,0.258,0.247,0.242,0.141,0.085,���k��,12.5,��
2020/12/20,13:10,0.177,0.159,0.260,0.246,0.240,0.142,0.085,���k��,11.1,��
2020/12/20,13:20,0.178,0.159,0.261,0.247,0.242,0.142,0.086,���k��,11.1,��
2020/12/20,13:30,0.178,0.161,0.261,0.246,0.241,0.142,0.086,���k��,9.0,��
2020/12/20,13:40,0.178,0.159,0.261,0.247,0.242,0.141,0.086,���k��,9.2,��
2020/12/20,13:50,0.179,0.160,0.262,0.244,0.240,0.140,0.086,���k��,6.6,��
2020/12/20,14:00,0.180,0.160,0.260,0.247,0.240,0.141,0.085,���k��,9.0,��
2020/12/20,14:10,0.179,0.160,0.262,0.246,0.241,0.141,0.086,��,8.1,��
2020/12/20,14:20,0.180,0.159,0.261,0.245,0.240,0.141,0.085,��,10.3,��
2020/12/20,14:30,0.178,0.160,0.261,0.247,0.241,0.141,0.086,��,11.4,��
2020/12/20,14:40,0.178,0.160,0.261,0.246,0.241,0.141,0.085,��,10.0,��
2020/12/20,14:50,0.179,0.160,0.262,0.245,0.240,0.141,0.085,��,10.6,��
2020/12/20,15:00,0.179,0.159,0.262,0.246,0.241,0.141,0.085,��,10.6,��
2020/12/20,15:10,0.179,0.160,0.260,0.247,0.241,0.141,0.086,���k��,10.1,��
2020/12/20,15:20,0.178,0.160,0.260,0.247,0.241,0.141,0.086,���k��,10.1,��
2020/12/20,15:30,0.178,0.160,0.261,0.246,0.240,0.141,0.085,���k��,9.5,��
2020/12/20,15:40,0.178,0.159,0.261,0.247,0.239,0.141,0.085,��,11.4,��
2020/12/20,15:50,0.179,0.160,0.259,0.247,0.240,0.141,0.086,���k��,9.6,��
2020/12/20,16:00,0.178,0.160,0.260,0.246,0.241,0.141,0.086,��,9.6,��
2020/12/20,16:10,0.178,0.160,0.261,0.247,0.240,0.141,0.085,���k��,9.2,��
2020/12/20,16:20,0.179,0.159,0.261,0.247,0.240,0.141,0.085,���k��,6.5,��
2020/12/20,16:30,0.179,0.160,0.262,0.247,0.240,0.141,0.085,���k��,5.3,��
2020/12/20,16:40,0.179,0.160,0.260,0.247,0.240,0.141,0.086,���k��,5.4,��
2020/12/20,16:50,0.178,0.161,0.261,0.247,0.242,0.142,0.085,���k��,6.2,��
2020/12/20,17:00,0.179,0.160,0.260,0.247,0.240,0.140,0.087,���k��,7.6,��
2020/12/20,17:10,0.178,0.161,0.259,0.248,0.239,0.141,0.085,���k��,6.6,��
2020/12/20,17:20,0.179,0.159,0.260,0.246,0.240,0.141,0.085,�k��,8.4,��
2020/12/20,17:30,0.178,0.159,0.262,0.246,0.241,0.142,0.085,���k��,5.5,��
2020/12/20,17:40,0.178,0.160,0.261,0.247,0.241,0.141,0.086,���k��,6.3,��
2020/12/20,17:50,0.178,0.160,0.260,0.246,0.240,0.141,0.085,���k��,7.1,��
2020/12/20,18:00,0.178,0.160,0.261,0.248,0.242,0.141,0.086,�k��,7.0,��
2020/12/20,18:10,0.178,0.160,0.259,0.247,0.240,0.142,0.085,���k��,5.8,��
2020/12/20,18:20,0.179,0.159,0.261,0.247,0.240,0.142,0.085,�k��,6.0,��
2020/12/20,18:30,0.179,0.160,0.261,0.246,0.239,0.142,0.086,�k,3.3,��
2020/12/20,18:40,0.178,0.159,0.260,0.247,0.241,0.141,0.086,�k��,4.5,��
2020/12/20,18:50,0.179,0.160,0.261,0.245,0.240,0.141,0.085,�k��,6.1,��
2020/12/20,19:00,0.178,0.159,0.260,0.246,0.240,0.141,0.086,���k��,4.2,��
2020/12/20,19:10,0.179,0.159,0.261,0.247,0.240,0.141,0.086,���k��,4.2,��
2020/12/20,19:20,0.178,0.159,0.261,0.247,0.239,0.141,0.085,���k��,3.5,��
2020/12/20,19:30,0.178,0.160,0.261,0.248,0.240,0.141,0.085,���k��,4.8,��
2020/12/20,19:40,0.178,0.160,0.261,0.247,0.240,0.141,0.085,�k��,3.2,��
2020/12/20,19:50,0.178,0.160,0.260,0.247,0.240,0.141,0.085,���k��,4.5,��
2020/12/20,20:00,0.178,0.160,0.260,0.248,0.240,0.141,0.086,���k��,5.4,��
2020/12/20,20:10,0.178,0.159,0.261,0.246,0.241,0.141,0.086,���k��,6.1,��
2020/12/20,20:20,0.179,0.160,0.260,0.247,0.239,0.140,0.086,��,5.8,��
2020/12/20,20:30,0.179,0.161,0.261,0.246,0.240,0.141,0.085,���k��,6.6,��
2020/12/20,20:40,0.178,0.160,0.260,0.246,0.240,0.141,0.085,���k��,4.1,��
2020/12/20,20:50,0.178,0.160,0.261,0.246,0.239,0.140,0.086,�k��,2.2,��
2020/12/20,21:00,0.178,0.160,0.261,0.247,0.240,0.142,0.086,���k��,3.6,��
2020/12/20,21:10,0.179,0.160,0.260,0.247,0.239,0.141,0.086,�k��,4.7,��
2020/12/20,21:20,0.179,0.160,0.261,0.246,0.239,0.141,0.085,�k��,2.9,��
2020/12/20,21:30,0.178,0.160,0.260,0.245,0.239,0.142,0.086,�k��,3.3,��
2020/12/20,21:40,0.177,0.160,0.260,0.246,0.240,0.141,0.085,�k�k��,1.6,��
2020/12/20,21:50,0.178,0.160,0.260,0.245,0.239,0.142,0.086,�k��,2.2,��
2020/12/20,22:00,0.179,0.159,0.261,0.245,0.240,0.142,0.086,�k,2.2,��
2020/12/20,22:10,0.178,0.159,0.260,0.246,0.239,0.141,0.086,�k,2.7,��
2020/12/20,22:20,0.178,0.160,0.260,0.247,0.240,0.142,0.085,�k,3.2,��
2020/12/20,22:30,0.179,0.160,0.260,0.246,0.239,0.141,0.085,�k�k��,2.5,��
2020/12/20,22:40,0.179,0.160,0.261,0.247,0.240,0.141,0.085,�k�k��,2.8,��
2020/12/20,22:50,0.179,0.160,0.259,0.246,0.240,0.140,0.085,�k,2.3,��
2020/12/20,23:00,0.178,0.160,0.259,0.247,0.240,0.142,0.086,�k,2.3,��
2020/12/20,23:10,0.178,0.160,0.262,0.246,0.240,0.142,0.086,�k,1.9,��
2020/12/20,23:20,0.178,0.160,0.262,0.248,0.241,0.142,0.086,�k,1.8,��
2020/12/20,23:30,0.178,0.160,0.260,0.247,0.240,0.141,0.085,�k,1.1,��
2020/12/20,23:40,0.179,0.160,0.261,0.246,0.240,0.142,0.086,�k��,1.4,��
2020/12/20,23:50,0.179,0.160,0.261,0.247,0.238,0.141,0.086,�k�k��,0.9,��
